Location: Starlight Observatory
(38.4029°N, 85.8936°W)
Time: 17:22:51
(UTC-04:00)

Iridium 84 - Visible Passes

Search period start: 27 May 2018 00:00
Search period end: 06 June 2018 00:00
Orbit: 776 x 779 km, 86.4° (Epoch: 27 May)

Date Brightness Start Highest point End Pass type
(mag) Time Alt. Az. Time Alt. Az. Time Alt. Az.
27 May 7.4 00:18:41 18° WSW 00:20:51 24° W 00:25:01 10° NNW visible
27 May 7.0 22:04:25 14° ESE 22:06:49 19° E 22:10:25 10° NE visible
27 May 6.4 23:44:53 28° SW 23:47:07 44° W 23:52:07 10° NNW visible
28 May 5.5 23:11:03 32° S 23:13:33 83° W 23:18:47 10° N visible
29 May 5.7 22:37:12 24° SSE 22:40:04 52° E 22:45:08 10° NNE visible
30 May 7.9 00:17:52 10° WSW 00:21:06 16° WNW 00:24:21 10° NW visible
30 May 6.6 22:03:20 15° SE 22:06:43 28° E 22:11:05 10° NNE visible
30 May 7.1 23:43:47 15° SW 23:47:18 30° W 23:51:53 10° NNW visible
31 May 7.3 21:30:38 10° ESE 21:33:29 15° ENE 21:36:21 10° NE visible
31 May 6.0 23:09:53 18° SSW 23:13:38 57° W 23:18:47 10° N visible
01 Jun 5.5 22:35:58 16° S 22:40:06 77° E 22:45:19 10° N visible
02 Jun 8.2 00:20:01 10° W 00:21:25 11° WNW 00:22:49 10° WNW visible
02 Jun 6.1 22:02:01 11° SSE 22:06:41 40° E 22:11:31 10° NNE visible
02 Jun 7.7 23:43:39 10° SW 23:47:32 21° WNW 23:51:26 10° NNW visible
03 Jun 6.9 21:29:28 10° SE 21:33:22 22° E 21:37:17 10° NNE visible
03 Jun 6.8 23:08:57 10° SSW 23:13:47 38° W 23:18:39 10° NNW visible
04 Jun 5.7 22:34:58 10° S 22:40:10 73° W 22:45:24 10° N visible
05 Jun 5.6 22:01:34 10° SSE 22:06:40 59° E 22:11:48 10° N visible
05 Jun 8.1 23:45:01 10° WSW 23:47:48 14° WNW 23:50:36 10° NW visible
